Alexandria, Egypt

12:08 PM EET on November 25, 2017 (GMT +0200)
Alexandria

Weather History for HEAX - November, 2013

Change the Weather History Date:

Friday, November 29, 2013

  Actual Average Record
Temperature  
Mean Temperature 64 °F -  
Max Temperature 69 °F 65 °F 80 °F (2010)
Min Temperature 60 °F 49 °F 51 °F (1998)
Growing Degree Days 14 (Base 50)    
Moisture  
Dew Point 51 °F    
Average Humidity 57    
Maximum Humidity 68    
Minimum Humidity 41    
Precipitation  
Precipitation 0.00 in 0.07 in - ()
Sea Level Pressure  
Sea Level Pressure 30.09 in    
Wind  
Wind Speed 9 mph ()    
Max Wind Speed 14 mph    
Max Gust Speed -    
Visibility 6.2 miles    
Events      
Averages and records for this station are not official NWS values.
T = Trace of Precipitation, MM = Missing Value Source: Averaged Metar Reports

Daily Weather History Graph

Daily Weather History Graph

Search for Another Location

Airport or City:

Trip Planner

Search our weather history database for the weather conditions in past years. The results will help you decide how hot, cold, wet, or windy it might be!

Date:

Astronomy

Nov. 29, 2013 Rise Set
Actual Time 6:39 AM EET 4:57 PM EET
Civil Twilight 6:13 AM EET 5:23 PM EET
Nautical Twilight 5:43 AM EET 5:53 PM EET
Astronomical Twilight 5:13 AM EET 6:22 PM EET
Moon 2:37 AM EET (11/29) 2:17 PM EET (11/29)
Length of Visible Light 11h 10m
Length of Day
10h 18m
Waning Crescent, 16% of the Moon is Illuminated
Nov 29
Waning Crescent
Dec 3
New
Dec 9
First Quarter
Dec 17
Full
Dec 25
Last Quarter

Hourly Weather History & Observations

Time (EET) Temp. Dew Point Humidity Pressure Visibility Wind Dir Wind Speed Gust Speed Precip Events Conditions
12:00 AM 66.2 °F 55.4 °F 68% 30.12 in 6.2 mi NNE 6.9 mph - N/A   Partly Cloudy
1:00 AM 66.2 °F 55.4 °F 68% 30.12 in 6.2 mi North 10.4 mph - N/A   Partly Cloudy
2:00 AM 66 °F 54 °F 55% 30.11 in 6 mi North 9.2 mph - -   Scattered Clouds
2:00 AM 66.2 °F 53.6 °F 64% 30.09 in 6.2 mi North 9.2 mph - N/A   Partly Cloudy
3:00 AM 66.2 °F 53.6 °F 64% 30.09 in 6.2 mi NNE 11.5 mph - N/A   Partly Cloudy
4:00 AM 64.4 °F 53.6 °F 68% 30.09 in 6.2 mi North 10.4 mph - N/A   Partly Cloudy
5:00 AM 65 °F 51 °F 52% 30.09 in 6 mi North 13.8 mph - -   Scattered Clouds
5:00 AM 64.4 °F 51.8 °F 64% 30.06 in 6.2 mi North 13.8 mph - N/A   Partly Cloudy
6:00 AM 64.4 °F 51.8 °F 64% 30.09 in 6.2 mi North 10.4 mph - N/A   Partly Cloudy
7:00 AM 64.4 °F 51.8 °F 64% 30.09 in 6.2 mi NNW 11.5 mph - N/A   Scattered Clouds
8:00 AM 66 °F 51 °F 48% 30.12 in 6 mi NNW 10.4 mph - -   Partly Cloudy
8:00 AM 66.2 °F 50.0 °F 56% 30.12 in 6.2 mi NNW 10.4 mph - N/A   Scattered Clouds
9:00 AM 66.2 °F 50.0 °F 56% 30.12 in 6.2 mi North 11.5 mph - N/A   Scattered Clouds
10:00 AM 69.8 °F 51.8 °F 53% 30.12 in 6.2 mi North 11.5 mph - N/A   Scattered Clouds
11:00 AM 68 °F 51 °F 43% 30.13 in 6 mi North 10.4 mph - -   Partly Cloudy
11:00 AM 68.0 °F 50.0 °F 52% 30.12 in 6.2 mi North 10.4 mph - N/A   Scattered Clouds
12:00 PM 69.8 °F 51.8 °F 53% 30.12 in 6.2 mi NNW 11.5 mph - N/A   Scattered Clouds
1:00 PM 68.0 °F 51.8 °F 56% 30.09 in 6.2 mi NNW 10.4 mph - N/A   Scattered Clouds
2:00 PM 69 °F 50 °F 41% 30.08 in 6 mi NNW 11.5 mph - -   Partly Cloudy
2:00 PM 68.0 °F 50.0 °F 52% 30.06 in 6.2 mi NNW 11.5 mph - N/A   Scattered Clouds
3:00 PM 69.8 °F 50.0 °F 49% 30.06 in 6.2 mi NNW 11.5 mph - N/A   Scattered Clouds
4:00 PM 66.2 °F 48.2 °F 52% 30.06 in 6.2 mi North 12.7 mph - N/A   Scattered Clouds
5:00 PM 64 °F 50 °F 50% 30.08 in 6 mi NNW 9.2 mph - -   Partly Cloudy
5:00 PM 64.4 °F 50.0 °F 59% 30.06 in 6.2 mi NNW 9.2 mph - N/A   Scattered Clouds
6:00 PM 64.4 °F 50.0 °F 59% 30.06 in 6.2 mi NNW 8.1 mph - N/A   Scattered Clouds
7:00 PM 64.4 °F 50.0 °F 59% 30.06 in 6.2 mi North 6.9 mph - N/A   Scattered Clouds
8:00 PM 64.4 °F 50.0 °F 59% 30.09 in 6.2 mi North 6.9 mph - N/A   Scattered Clouds
9:00 PM 62.6 °F 50.0 °F 63% 30.09 in 6.2 mi North 4.6 mph - N/A   Scattered Clouds
10:00 PM 60.8 °F 50.0 °F 68% 30.09 in 6.2 mi NNE 4.6 mph - N/A   Scattered Clouds
11:00 PM 61 °F 49 °F 55% 30.09 in 6 mi North 5.8 mph - -   Partly Cloudy
11:00 PM 60.8 °F 48.2 °F 63% 30.09 in 6.2 mi North 5.8 mph - N/A   Scattered Clouds